Location: Fosso Corella
(43.9167°N, 11.5667°E)
Time: 20:01:39
(UTC+00:00)

USA 229 DEB - Pass Details

Date: 07 June 2020
Orbit: 983 x 1229 km, 63.4° (Epoch: 24 June)

Event Time Altitude Azimuth Distance (km) Brightness Sun altitude
Rises 01:07:49 0° 322° (NW) 3,968 7.0 -18.3°
Reaches altitude 10° 01:10:27 10° 321° (NW) 3,039 6.4 -18.0°
Maximum altitude 01:17:46 79° 236° (SW) 1,210 3.8 -17.4°
Drops below altitude 10° 01:25:24 10° 151° (SSE) 3,161 5.9 -16.7°
Sets 01:28:11 0° 151° (SSE) 4,135 6.5 -16.4°
